Погода в Орше

Россия / Республика Марий Эл     56°54′26″N   48°30′26″E
темп.,
°C
ветер,
м/с
пор.,
м/с
влажн.,
%
обл.,
%
осадки,
мм/ч
давл.,
гПа
погр.,
м
20 апреля, вт
вт2000:000в411580 0.0 1033232
03:00−1в411560 0.0 1033252
06:000в511510 0.0 1033299
09:00+5вюв68380 0.0 1033806
12:00+8вюв67330 0.0 10311456
15:00+9вюв78300 0.0 10301486
18:00+7юв48420 0.0 1029243
21:00+3вюв513525 0.0 1029258
21 апреля, ср
ср2100:00+2вюв5135675 0.0 1027301
03:00+2вюв71652100 0.0 1026425
06:00+3юв91849100 0.0 1024702
09:00+5юв101746100 0.0 1023944
12:00+3юв101867100 0.5 1022899
15:00+2ююв101983100 1.9 1021888
18:00+1ююв91892100 2.5 1020747
21:00+1ююв91794100 3.5 1019717
22 апреля, чт
чт2200:00+2ююв81696100 0.3 1018640
03:00+2ююв81597100 0.6 1018691
06:00+4ю71396100 0.1 1020582
09:00+5ю6119277 0.1 1021463
12:00+8ю6881100 0.0 1022838
15:00+10ююв7107771 0.1 1021811
18:00+8ююв81386100 0.1 1021576
21:00+7ю6129131 2.9 1022483
23 апреля, пт
пт2300:00+4ю479828 0.1 1023144
03:00+3ююз33955 0.1 102439
06:00+4ююв23945 0.0 1025103
09:00+9ю347624 0.0 1025573
12:00+11ююз3356100 0.3 10251592
15:00+12ююв225091 0.3 10251428
18:00+10вюв356514 0.0 1024110
21:00+7вюв489046 0.0 1024147
24 апреля, сб
сб2400:00+7юв51086100 0.0 1023211
03:00+6вюв4885100 0.0 1022185
06:00+6вюв51087100 0.0 1021337
09:00+8в6873100 0.0 1019591
12:00+10в5662100 0.0 10171239
15:00+9вюв5776100 0.1 1015781
18:00+6вюв4689100 0.0 1014432
21:00+6вюв3694100 0.0 1013438